Time,TemperatureF,DewpointF,PressureIn,WindDirection,WindDirectionDegrees,WindSpeedMPH,WindSpeedGustMPH,Humidity,HourlyPrecipIn,Conditions,Clouds,dailyrainin,SoftwareType,DateUTC
2013-09-04 00:20:00,83.1,77.0,29.86,East,93,2.0,11.0,82,0.00,,,0.00,VWS V14.01,2013-09-04 04:20:00,
2013-09-04 00:51:00,83.0,76.6,29.85,ESE,107,4.0,12.0,81,0.00,,,0.00,VWS V14.01,2013-09-04 04:51:00,
2013-09-04 01:21:00,82.9,76.5,29.85,ESE,115,2.0,11.0,81,0.00,,,0.00,VWS V14.01,2013-09-04 05:21:00,
2013-09-04 01:50:00,83.0,76.9,29.83,SE,129,2.0,13.0,82,0.00,,,0.00,VWS V14.01,2013-09-04 05:50:00,
2013-09-04 02:20:00,82.8,76.8,29.83,East,82,6.0,14.0,82,0.00,,,0.00,VWS V14.01,2013-09-04 06:20:00,
2013-09-04 02:50:00,82.9,76.8,29.82,ESE,113,4.0,12.0,82,0.00,,,0.00,VWS V14.01,2013-09-04 06:50:00,
2013-09-04 03:20:00,82.8,76.8,29.82,East,90,6.0,13.0,82,0.00,,,0.00,VWS V14.01,2013-09-04 07:20:00,
2013-09-04 03:50:00,82.5,76.8,29.82,East,92,2.0,10.0,83,0.00,,,0.00,VWS V14.01,2013-09-04 07:50:00,
2013-09-04 04:20:00,80.0,75.4,29.82,East,92,5.0,13.0,86,0.09,,,0.09,VWS V14.01,2013-09-04 08:20:00,
2013-09-04 04:50:00,80.7,76.8,29.83,ESE,119,4.0,10.0,88,0.09,,,0.09,VWS V14.01,2013-09-04 08:50:00,
2013-09-04 05:20:00,82.0,77.4,29.83,East,89,1.0,12.0,86,0.09,,,0.09,VWS V14.01,2013-09-04 09:20:00,
2013-09-04 05:50:00,79.4,74.8,29.84,ESE,106,4.0,16.0,86,0.00,,,0.09,VWS V14.01,2013-09-04 09:50:00,
2013-09-04 06:21:00,79.8,76.3,29.85,ESE,123,0.0,8.0,89,0.02,,,0.11,VWS V14.01,2013-09-04 10:21:00,
2013-09-04 06:50:00,80.0,77.1,29.85,East,90,3.0,7.0,91,0.02,,,0.11,VWS V14.01,2013-09-04 10:50:00,
2013-09-04 07:21:00,81.8,78.2,29.86,East,90,6.0,13.0,89,0.02,,,0.11,VWS V14.01,2013-09-04 11:21:00,
2013-09-04 07:50:00,83.3,78.0,29.86,ESE,112,7.0,14.0,84,0.00,,,0.11,VWS V14.01,2013-09-04 11:50:00,
2013-09-04 08:20:00,82.9,78.3,29.88,East,101,3.0,15.0,86,0.03,,,0.14,VWS V14.01,2013-09-04 12:20:00,
2013-09-04 08:50:00,82.8,78.5,29.89,East,97,11.0,13.0,87,0.03,,,0.14,VWS V14.01,2013-09-04 12:50:00,
2013-09-04 09:20:00,82.6,78.3,29.88,ESE,119,3.0,13.0,87,0.05,,,0.16,VWS V14.01,2013-09-04 13:20:00,
2013-09-04 09:50:00,84.6,78.5,29.89,ESE,112,7.0,16.0,82,0.02,,,0.16,VWS V14.01,2013-09-04 13:50:00,
2013-09-04 10:21:00,85.3,78.8,29.89,ESE,103,8.0,14.0,81,0.02,,,0.16,VWS V14.01,2013-09-04 14:21:00,
2013-09-04 10:50:00,85.7,79.6,29.88,ESE,107,4.0,14.0,82,0.00,,,0.16,VWS V14.01,2013-09-04 14:50:00,
2013-09-04 11:20:00,80.6,75.7,29.89,ESE,103,7.0,19.0,85,0.01,,,0.17,VWS V14.01,2013-09-04 15:20:00,
2013-09-04 11:51:00,80.2,77.0,29.88,East,92,1.0,12.0,90,0.01,,,0.17,VWS V14.01,2013-09-04 15:51:00,
2013-09-04 12:20:00,81.7,78.2,29.88,SE,128,2.0,12.0,89,0.01,,,0.17,VWS V14.01,2013-09-04 16:20:00,
2013-09-04 12:51:00,82.7,77.7,29.88,East,87,0.0,15.0,85,0.00,,,0.17,VWS V14.01,2013-09-04 16:51:00,
2013-09-04 13:21:00,83.2,77.5,29.87,SSE,163,1.0,10.0,83,0.00,,,0.17,VWS V14.01,2013-09-04 17:21:00,
2013-09-04 13:50:00,81.7,77.5,29.86,ENE,78,3.0,12.0,87,0.00,,,0.17,VWS V14.01,2013-09-04 17:50:00,
2013-09-04 14:20:00,82.0,76.7,29.85,ESE,111,4.0,12.0,84,0.00,,,0.17,VWS V14.01,2013-09-04 18:20:00,
2013-09-04 14:51:00,81.7,77.1,29.86,SSE,158,3.0,14.0,86,0.00,,,0.17,VWS V14.01,2013-09-04 18:51:00,
2013-09-04 15:20:00,79.1,73.8,29.85,SE,140,4.0,13.0,84,0.00,,,0.17,VWS V14.01,2013-09-04 19:20:00,
2013-09-04 15:50:00,77.8,72.9,29.84,SE,135,2.0,15.0,85,0.00,,,0.17,VWS V14.01,2013-09-04 19:50:00,
2013-09-04 16:20:00,77.6,72.7,29.84,East,94,0.0,8.0,85,0.01,,,0.18,VWS V14.01,2013-09-04 20:20:00,
2013-09-04 16:50:00,77.5,73.7,29.83,SE,133,1.0,7.0,88,0.01,,,0.18,VWS V14.01,2013-09-04 20:50:00,
2013-09-04 17:20:00,78.0,74.5,29.83,ESE,115,1.0,7.0,89,0.01,,,0.18,VWS V14.01,2013-09-04 21:20:00,
2013-09-04 17:50:00,78.3,74.8,29.83,SE,140,0.0,7.0,89,0.00,,,0.18,VWS V14.01,2013-09-04 21:50:00,
2013-09-04 18:20:00,78.8,74.9,29.83,ESE,108,0.0,6.0,88,0.00,,,0.18,VWS V14.01,2013-09-04 22:20:00,
2013-09-04 18:50:00,79.1,74.9,29.84,SE,125,1.0,7.0,87,0.00,,,0.18,VWS V14.01,2013-09-04 22:50:00,
2013-09-04 19:20:00,77.8,74.3,29.85,SSE,153,0.0,5.0,89,0.00,,,0.18,VWS V14.01,2013-09-04 23:20:00,
2013-09-04 19:51:00,78.0,74.8,29.86,East,88,0.0,5.0,90,0.00,,,0.18,VWS V14.01,2013-09-04 23:51:00,
2013-09-04 20:20:00,79.6,76.4,29.87,ESE,113,0.0,5.0,90,0.03,,,0.21,VWS V14.01,2013-09-05 00:20:00,
2013-09-04 20:51:00,78.4,75.9,29.87,East,86,0.0,8.0,92,0.23,,,0.41,VWS V14.01,2013-09-05 00:51:00,
2013-09-04 21:21:00,78.9,76.7,29.88,ENE,71,4.0,13.0,93,0.23,,,0.41,VWS V14.01,2013-09-05 01:21:00,
2013-09-04 21:50:00,79.8,76.9,29.89,ESE,106,2.0,10.0,91,0.20,,,0.41,VWS V14.01,2013-09-05 01:50:00,
2013-09-04 22:21:00,80.8,77.3,29.89,ESE,113,7.0,11.0,89,0.00,,,0.41,VWS V14.01,2013-09-05 02:21:00,
2013-09-04 22:51:00,81.3,77.8,29.89,SE,134,6.0,11.0,89,0.00,,,0.41,VWS V14.01,2013-09-05 02:51:00,
2013-09-04 23:21:00,81.4,77.8,29.88,East,86,5.0,11.0,89,0.00,,,0.41,VWS V14.01,2013-09-05 03:21:00,
2013-09-04 23:51:00,80.7,77.2,29.86,East,83,7.0,15.0,89,0.00,,,0.41,VWS V14.01,2013-09-05 03:51:00,